Find Starlink 32175

NORAD ID: 60339 Int'l Des: 2024-136 Owner: SPXS Country: US Constellation: starlink operational
LEOCIRCULAR

現在のビュー

3D地球を読み込み中...

About Starlink 32175

Starlink 32175 (NORAD 60339) is a starlink constellation satellite (v2 mini) launched Aug 2, 2024 by SPXS of US. It operates in LEO, CIRCULAR orbit with a mass of 730.00 kg.

次回通過

Passes for default location (London). Set your location on the main map for personalized predictions.

高度履歴

Loading altitude history...

軌道要素

1 60339U 24136L 26235.77521232 .00000487 00000-0 25543-4 0 9996
2 60339 53.1619 19.0372 0000864 104.7522 255.3576 15.34389778115251
Epoch: Aug 23, 2026 • Age: 13 hours

現在のステータス

高度 463.7 km
遠地点 / 近地点 N/A
速度 7.64 km/s
衛星直下点 28.04°N, 84.44°E
打ち上げ日 Aug 2, 2024
運用期間 2 years
タイプ internet

技術仕様

分類 Payload
質量 730.00 kg
乾燥質量 700.00 kg
総質量 730.00 kg
長さ 0.30 m
直径 4.10 m
スパン 29.00 m
形状 Box + pan
製造者 SPXS
バスタイプ Starlink V2M
フェーズステータス In Orbit
所有者/国 SPXS/US

Most Searched